Tracking 32941 objects as of 15-Jan-2026
HD Live streaming from Space Station
objects crossing your sky now

AYAME 2 DEB

Track AYAME 2 DEB now!


NORAD ID: 28999
Int'l Code: 1980-018D
Perigee: 9,923.5 km
Apogee: 35,325.3 km
Inclination: 9.2 °
Period: 818.9 minutes
Semi major axis: 28995 km
RCS: 0.631 m2 (medium)
Launch date: February 22, 1980
Source: Japan (JPN)
Launch site: TANEGASHIMA SPACE CENTER (TNSTA)

Note: This is SATELLITE DEBRIS
Your satellite tracking list
Your tracking list is empty




NASA's NSSDC Master Catalog

Two Line Element Set (TLE):
1 28999U 80018D   26014.78892507 -.00000132  00000-0  00000+0 0  9999
2 28999   9.1889  45.7925 4380301 280.5433  34.2435  1.75836566129965
Source of the keplerian elements: AFSPC